Flag for Canada Weather past 2 weeks in Saint John, New Brunswick, Canada

Now
14 °F

Clear.


Feels Like: 5 °F
Forecast: 4 / 28 °F
Wind: 6 mph from West

Location: Saint John

Current Time: Mar 1, 2015 at 12:47:52 AM

Latest Report: Mar 1, 2015 at 12:00 AM


Visibility: 15 mi

Pressure: 30.62 "Hg

Humidity: 62%

Dew point: 3 °F

Location of Saint JohnLocation

Historic Weather in Saint John — Graph

°F

Saint John temperature yesterday

Maximum temperature yesterday: 23 °F (at 3:00 PM)
Minimum temperature yesterday: -15 °F (at 7:00 AM)
Average temperature yesterday: 7 °F

Past Weeks' High & Low Weather Summary

 TemperatureHumidityPressure
High36 °F (Feb 22, 4:54 AM)100% (Feb 22, 12:00 AM)30.64 "Hg (Feb 22, 12:00 AM)
Low-15 °F (Feb 28, 7:00 AM)35% (Feb 21, 1:00 PM)29.09 "Hg (Feb 15, 6:00 PM)
Average11 °F70%29.91 "Hg
* Reported Feb 13 11:00 PM — Feb 28 11:00 PM, Saint John, Weather by CustomWeather, © 2015

Note: Actual official high and low records may vary slightly from our data, if they occured in-between our weather recording intervals... More about our weather records

Advertising

Saint John weather history for previous 24 hours

 ConditionsComfort  
Time TempWeatherWind HumidityBarometerVisibility
11:00 PM
Sat, Feb 28
16 °FClear.6 mph57%30.62 "Hg15 mi
10:00 PM18 °FClear.7 mph58%30.61 "Hg15 mi
9:00 PM19 °FClear.10 mph63%30.60 "Hg15 mi
8:00 PM19 °FClear.10 mph53%30.60 "Hg15 mi
7:00 PM18 °FClear.9 mph62%30.60 "Hg15 mi
6:00 PM21 °FSunny.14 mph54%30.58 "Hg15 mi
5:00 PM23 °FSunny.10 mph50%30.58 "Hg15 mi
4:00 PM23 °FSunny.15 mph46%30.58 "Hg15 mi
3:00 PM23 °FSunny.12 mph46%30.58 "Hg15 mi
2:00 PM21 °FSunny.17 mph49%30.60 "Hg15 mi
1:00 PM21 °FSunny.10 mph38%30.61 "Hg15 mi
12:00 PM18 °FSunny.9 mph45%30.63 "Hg15 mi
11:00 AM12 °FSunny.7 mph73%30.64 "Hg15 mi
10:00 AM7 °FSunny.No wind78%30.63 "Hg15 mi
9:00 AM-4 °FSunny.3 mph77%30.63 "Hg15 mi
8:00 AM-15 °FSunny.3 mph76%30.59 "Hg15 mi
7:00 AM-15 °FClear.2 mph69%30.56 "Hg15 mi
6:00 AM-13 °FClear.No wind76%30.54 "Hg15 mi
5:00 AM-9 °FClear.No wind70%30.53 "Hg15 mi
4:00 AM-11 °FClear.6 mph76%30.49 "Hg15 mi
3:00 AM0 °FClear.No wind78%30.47 "Hg15 mi
2:00 AM-4 °FFog.No wind77%30.46 "Hg15 mi
1:00 AM-4 °FFog.8 mph77%30.43 "Hg15 mi
12:00 AM-9 °FClear.No wind70%30.42 "Hg15 mi
Weather by CustomWeather, © 2015

See weather overviewHow to use our weather pages